User: anonymous   Login
Location: Chervonnoye
(48.6000°N, 34.4000°E)
Time: 10:21:45
(UTC+00:00)
Language:

Cosmos 1633 Rocket - Orbit

View from above orbital plane
View from above orbital plane
View from above satellite
View from above satellite

Ground track
Ground track

The orbit data is extracted from the following two-line orbital elements,

1 15593U 85020B   21064.02371362  .00000098  00000-0  88008-5 0  9991
2 15593  82.5351  72.8429 0010327 233.4969 126.5296 14.84418799945644
Epoch (UTC): 05 March 2021 00:34:08
Eccentricity: 0.0010327
inclination: 82.5351°
perigee height: 608 km
apogee height: 622 km
right ascension of ascending node: 72.8429°
argument of perigee: 233.4969°
revolutions per day: 14.84418799
mean anomaly at epoch: 126.5296°
orbit number at epoch: 94564

The dashed part of the orbit path shows where the satellite is in the earth's shadow,  

DLR